Plancius — PBQK — position and weather

sailwx.info

Track history (hours):
 
Tides and Currents Weather Stations Pressure Air Temp Water Temp Dewpoint Dewpoint Depression Visibility Wind Speed Wind Dir Waves Ship Positions

Plancius

Last reported at 2017-Mar-19 00:00 UTC. Time now 2017-Mar-24 12:20 UTC.
Position S 59°00' W 063°42'.

Length 90 m; draft 5.2 m.

Type: Passenger vessel. MMSI: 246573000.

Wind from 300 at 21 knots

Barometer 1001.7 mb
Air temperature 6.5 ° C
Visibility: greater than 0.3 NM
Dewpoint 4.4 ° C

Date/timePositionNaut miles runAvg speedWind from/ knotsBaromVisibWave heightAir tempDewpointWater temp
2017-Mar-19 00:00S 59°00' W 063°42'14011.7 300 / 211001.7 0.3 6.5 4.4
2017-Mar-18 12:00S 56°48' W 065°12'13510.9 280 / 221000.7 5.4 8.5 6.5
2017-Mar-17 23:33S 54°55' W 067°25'1313.2
2017-Mar-17 22:33S 54°53' W 067°48'1313.0
2017-Mar-17 21:33S 54°50' W 068°10'5 4.3
2017-Mar-17 20:26S 54°49' W 068°18'0 0.0
2017-Mar-17 19:32S 54°49' W 068°18'0 0.0
2017-Mar-17 18:32S 54°49' W 068°18'0 0.0
2017-Mar-17 17:32S 54°49' W 068°18'0 0.0
2017-Mar-17 16:32S 54°49' W 068°18'0 0.0
2017-Mar-17 15:32S 54°49' W 068°18'0 0.0
2017-Mar-17 14:32S 54°49' W 068°18'0 0.0
2017-Mar-17 13:32S 54°49' W 068°18'0 0.0
2017-Mar-17 12:32S 54°49' W 068°18'0 0.0
2017-Mar-17 11:23S 54°49' W 068°18'0 0.0
2017-Mar-17 10:32S 54°49' W 068°18'2 2.5
2017-Mar-17 09:33S 54°49' W 068°14'9 9.3
2017-Mar-17 08:33S 54°52' W 067°59'9 8.9
2017-Mar-17 07:33S 54°54' W 067°43'89 4.5
2017-Mar-16 12:00S 56°18' W 066°54'12810.7 260 / 131014.7 5.4 10.0 6.1
2017-Mar-16 00:00S 58°12' W 065°06'   240 / 41015.7 2.2 5.0 0.3
Track history (hours):
 
Tides and Currents Weather Stations Pressure Air Temp Water Temp Dewpoint Dewpoint Depression Visibility Wind Speed Wind Dir Waves Ship Positions

Plancius

Last reported at 2017-Mar-19 00:00 UTC. Time now 2017-Mar-24 12:20 UTC.
Position S 59°00' W 063°42'.

Length 90 m; draft 5.2 m.

Type: Passenger vessel. MMSI: 246573000.

Wind from 300 at 21 knots

Barometer 1001.7 mb
Air temperature 6.5 ° C
Visibility: greater than 0.3 NM
Dewpoint 4.4 ° C

Date/timePositionNaut miles runAvg speedWind from/ knotsBaromVisibWave heightAir tempDewpointWater temp
2017-Mar-19 00:00S 59°00' W 063°42'14011.7 300 / 211001.7 0.3 6.5 4.4
2017-Mar-18 12:00S 56°48' W 065°12'13510.9 280 / 221000.7 5.4 8.5 6.5
2017-Mar-17 23:33S 54°55' W 067°25'1313.2
2017-Mar-17 22:33S 54°53' W 067°48'1313.0
2017-Mar-17 21:33S 54°50' W 068°10'5 4.3
2017-Mar-17 20:26S 54°49' W 068°18'0 0.0
2017-Mar-17 19:32S 54°49' W 068°18'0 0.0
2017-Mar-17 18:32S 54°49' W 068°18'0 0.0
2017-Mar-17 17:32S 54°49' W 068°18'0 0.0
2017-Mar-17 16:32S 54°49' W 068°18'0 0.0
2017-Mar-17 15:32S 54°49' W 068°18'0 0.0
2017-Mar-17 14:32S 54°49' W 068°18'0 0.0
2017-Mar-17 13:32S 54°49' W 068°18'0 0.0
2017-Mar-17 12:32S 54°49' W 068°18'0 0.0
2017-Mar-17 11:23S 54°49' W 068°18'0 0.0
2017-Mar-17 10:32S 54°49' W 068°18'2 2.5
2017-Mar-17 09:33S 54°49' W 068°14'9 9.3
2017-Mar-17 08:33S 54°52' W 067°59'9 8.9
2017-Mar-17 07:33S 54°54' W 067°43'89 4.5
2017-Mar-16 12:00S 56°18' W 066°54'12810.7 260 / 131014.7 5.4 10.0 6.1
2017-Mar-16 00:00S 58°12' W 065°06'   240 / 41015.7 2.2 5.0 0.3

Dump ship's entire track history